TimeCDT,TemperatureF,Dew PointF,Humidity,Sea Level PressureIn,VisibilityMPH,Wind Direction,Wind SpeedMPH,Gust SpeedMPH,PrecipitationIn,Events,Conditions,WindDirDegrees,DateUTC
12:58 AM,81.5,76.1,84,29.77,10.0,SW,11.5,-,N/A,,Clear,220,2013-06-30 05:58:00
1:58 AM,81.5,75.7,83,29.75,10.0,WSW,6.9,-,N/A,Thunderstorm,Clear,240,2013-06-30 06:58:00
2:58 AM,81.3,74.1,79,29.74,10.0,SW,10.4,-,N/A,,Partly Cloudy,230,2013-06-30 07:58:00
3:58 AM,81.5,74.1,78,29.74,10.0,WSW,12.7,-,N/A,,Partly Cloudy,240,2013-06-30 08:58:00
4:58 AM,81.5,74.1,78,29.74,10.0,SW,8.1,-,N/A,,Partly Cloudy,230,2013-06-30 09:58:00
5:58 AM,81.3,73.9,78,29.76,10.0,SSW,6.9,-,N/A,,Partly Cloudy,210,2013-06-30 10:58:00
6:58 AM,78.4,72.3,81,29.77,10.0,SSW,12.7,21.9,N/A,,Mostly Cloudy,200,2013-06-30 11:58:00
7:58 AM,78.3,73.9,87,29.77,10.0,SSW,12.7,-,0.01,,Scattered Clouds,200,2013-06-30 12:58:00
8:18 AM,78.8,75.2,89,29.77,10.0,SW,12.7,-,N/A,,Light Drizzle,220,2013-06-30 13:18:00
8:23 AM,78.8,75.2,89,29.77,10.0,SW,9.2,-,N/A,Rain-Thunderstorm,Light Rain,220,2013-06-30 13:23:00
8:28 AM,78.8,75.2,89,29.77,9.0,SW,11.5,-,N/A,Rain-Thunderstorm,Light Rain,220,2013-06-30 13:28:00
8:33 AM,78.8,75.2,89,29.77,9.0,SW,10.4,-,N/A,Rain-Thunderstorm,Light Rain,220,2013-06-30 13:33:00
8:38 AM,78.8,75.2,89,29.77,10.0,SW,8.1,-,N/A,Rain-Thunderstorm,Light Rain,220,2013-06-30 13:38:00
8:58 AM,79.0,74.7,87,29.79,10.0,SSW,10.4,-,0.01,Thunderstorm,Partly Cloudy,210,2013-06-30 13:58:00
9:58 AM,81.5,74.8,80,29.77,10.0,SW,13.8,-,0.00,,Scattered Clouds,220,2013-06-30 14:58:00
10:58 AM,81.7,72.5,74,29.78,10.0,SW,12.7,-,N/A,,Partly Cloudy,230,2013-06-30 15:58:00
11:58 AM,82.6,73.4,74,29.78,10.0,WSW,13.8,-,N/A,,Scattered Clouds,240,2013-06-30 16:58:00
12:58 PM,81.9,73.4,75,29.77,10.0,WSW,4.6,-,0.00,,Partly Cloudy,240,2013-06-30 17:58:00
1:33 PM,80.6,77.0,89,29.74,10.0,SW,5.8,-,N/A,,Mostly Cloudy,220,2013-06-30 18:33:00
1:38 PM,80.6,77.0,89,29.74,10.0,SSW,5.8,-,N/A,,Mostly Cloudy,200,2013-06-30 18:38:00
1:43 PM,80.6,75.2,84,29.74,10.0,South,5.8,-,N/A,,Mostly Cloudy,190,2013-06-30 18:43:00
1:53 PM,80.6,75.2,84,29.74,10.0,SSW,5.8,-,N/A,,Mostly Cloudy,210,2013-06-30 18:53:00
1:58 PM,81.1,75.9,84,29.75,10.0,South,9.2,-,0.01,,Mostly Cloudy,190,2013-06-30 18:58:00
2:08 PM,82.4,75.2,79,29.74,10.0,WSW,6.9,-,N/A,,Mostly Cloudy,240,2013-06-30 19:08:00
2:13 PM,82.4,75.2,79,29.73,10.0,WSW,8.1,-,N/A,,Mostly Cloudy,240,2013-06-30 19:13:00
2:58 PM,83.8,74.7,74,29.75,10.0,SW,9.2,-,N/A,,Scattered Clouds,230,2013-06-30 19:58:00
3:58 PM,82.0,72.0,71,29.75,10.0,WSW,11.5,-,N/A,,Partly Cloudy,240,2013-06-30 20:58:00
4:53 PM,75.2,69.8,83,29.74,9.0,SW,6.9,-,N/A,Rain,Light Rain,220,2013-06-30 21:53:00
4:58 PM,75.4,70.0,83,29.75,9.0,SW,6.9,-,0.02,Rain,Light Rain,220,2013-06-30 21:58:00
5:23 PM,77.0,73.4,89,29.74,10.0,SSW,9.2,-,N/A,Rain,Light Rain,200,2013-06-30 22:23:00
5:58 PM,78.1,72.3,82,29.73,10.0,WSW,8.1,-,0.02,,Clear,240,2013-06-30 22:58:00
6:58 PM,78.6,73.0,83,29.75,10.0,SE,2.3,-,N/A,,Clear,130,2013-06-30 23:58:00
7:58 PM,76.1,73.2,91,29.77,10.0,East,4.6,-,N/A,,Scattered Clouds,80,2013-07-01 00:58:00
8:03 PM,77.0,73.4,89,29.76,10.0,East,4.6,-,N/A,,Mostly Cloudy,80,2013-07-01 01:03:00
8:08 PM,77.0,73.4,89,29.76,10.0,ENE,4.6,-,N/A,,Mostly Cloudy,70,2013-07-01 01:08:00
8:33 PM,77.0,73.4,89,29.77,10.0,ESE,4.6,-,N/A,,Mostly Cloudy,110,2013-07-01 01:33:00
8:38 PM,77.0,73.4,89,29.77,10.0,East,5.8,-,N/A,,Scattered Clouds,100,2013-07-01 01:38:00
8:48 PM,77.0,73.4,89,29.77,10.0,ESE,5.8,-,N/A,,Mostly Cloudy,120,2013-07-01 01:48:00
8:58 PM,76.6,73.2,89,29.78,10.0,SE,8.1,-,N/A,,Scattered Clouds,130,2013-07-01 01:58:00
9:08 PM,77.0,73.4,89,29.77,10.0,ESE,6.9,-,N/A,,Mostly Cloudy,120,2013-07-01 02:08:00
9:13 PM,77.0,73.4,89,29.78,10.0,ESE,5.8,-,N/A,,Scattered Clouds,120,2013-07-01 02:13:00
9:38 PM,77.0,73.4,89,29.78,10.0,East,4.6,-,N/A,,Mostly Cloudy,90,2013-07-01 02:38:00
9:43 PM,77.0,73.4,89,29.79,10.0,East,3.5,-,N/A,,Mostly Cloudy,100,2013-07-01 02:43:00
9:48 PM,77.0,73.4,89,29.78,10.0,East,4.6,-,N/A,,Mostly Cloudy,100,2013-07-01 02:48:00
9:53 PM,75.2,73.4,94,29.78,10.0,ESE,4.6,-,N/A,,Mostly Cloudy,110,2013-07-01 02:53:00
9:58 PM,75.9,73.4,92,29.79,10.0,East,4.6,-,N/A,,Mostly Cloudy,100,2013-07-01 02:58:00
10:03 PM,75.2,73.4,94,29.78,10.0,East,4.6,-,N/A,,Mostly Cloudy,100,2013-07-01 03:03:00
10:08 PM,75.2,73.4,94,29.78,10.0,East,4.6,-,N/A,,Scattered Clouds,100,2013-07-01 03:08:00
10:43 PM,75.2,73.4,94,29.79,10.0,ENE,5.8,-,N/A,,Mostly Cloudy,60,2013-07-01 03:43:00
10:48 PM,75.2,73.4,94,29.79,10.0,East,5.8,-,N/A,,Scattered Clouds,90,2013-07-01 03:48:00
10:58 PM,75.2,73.0,93,29.79,10.0,East,5.8,-,N/A,,Scattered Clouds,100,2013-07-01 03:58:00
11:58 PM,74.5,72.3,93,29.80,10.0,East,3.5,-,N/A,,Clear,100,2013-07-01 04:58:00